Detroit, MI

12:34 PM EST on February 27, 2017 (GMT -0500)
Detroit Metro Wayne County

Weather History for KDTW - December, 2013

Change the Weather History Date:

Sunday, December 15, 2013

  Actual Average Record
Temperature  
Mean Temperature 20 °F 30 °F  
Max Temperature 25 °F 36 °F 61 °F (1933)
Min Temperature 15 °F 24 °F -1 °F (1916)
Degree Days  
Heating Degree Days 45 35  
Month to date heating degree days 574 489  
Since 1 July heating degree days 1876 1704  
Cooling Degree Days 0 0  
Month to date cooling degree days 0 0  
Year to date cooling degree days 891 803  
Moisture  
Dew Point 16 °F    
Average Humidity 83    
Maximum Humidity 92    
Minimum Humidity 74    
Precipitation  
Precipitation 0.03 in 0.08 in 1.45 in (1987)
Month to date precipitation 0.68 1.23  
Year to date precipitation 38.16 32.24  
Snow  
Snow 1.00 in 0.40 in 5.70 in (2005)
Month to date snowfall 10.0 3.9  
Since 1 July snowfall 11.2 5.5  
Snow Depth 0.00 in    
Sea Level Pressure  
Sea Level Pressure 29.88 in    
Wind  
Wind Speed 12 mph (WSW)    
Max Wind Speed 25 mph    
Max Gust Speed 33 mph    
Visibility 6 miles    
Events Snow    
T = Trace of Precipitation, MM = Missing Value Source: NWS Daily Summary

Daily Weather History Graph

Daily Weather History Graph

Search for Another Location

Airport or City:

Trip Planner

Search our weather history database for the weather conditions in past years. The results will help you decide how hot, cold, wet, or windy it might be!

Date:

Astronomy

Dec. 15, 2013 Rise Set
Actual Time 7:55 AM EST 5:02 PM EST
Civil Twilight 7:23 AM EST 5:33 PM EST
Nautical Twilight 6:48 AM EST 6:09 PM EST
Astronomical Twilight 6:13 AM EST 6:43 PM EST
Moon 4:06 PM EST (12/15) 6:09 AM EST (12/15)
Length of Visible Light 10h 10m
Length of Day
9h 06m
Waxing Gibbous, 97% of the Moon is Illuminated
Dec 15
Waxing Gibbous
Dec 17
Full
Dec 25
Last Quarter
Jan 1
New
Jan 7
First Quarter

Hourly Weather History & Observations

Time (EST) Temp. Windchill Dew Point Humidity Pressure Visibility Wind Dir Wind Speed Gust Speed Precip Events Conditions
12:40 AM 21.2 °F 13.6 °F 17.6 °F 86% 29.80 in 9.0 mi WNW 5.8 mph - 0.00 in   Mostly Cloudy
12:53 AM 21.0 °F 13.4 °F 18.0 °F 88% 29.82 in 9.0 mi WNW 5.8 mph - 0.00 in   Mostly Cloudy
1:53 AM 21.9 °F 14.5 °F 18.0 °F 85% 29.83 in 9.0 mi West 5.8 mph - N/A   Overcast
2:53 AM 19.9 °F 9.3 °F 17.1 °F 89% 29.85 in 10.0 mi West 9.2 mph - N/A   Overcast
3:00 AM 19.4 °F 9.5 °F 17.6 °F 93% 29.82 in 10.0 mi WNW 8.1 mph - N/A   Overcast
3:53 AM 19.0 °F 7.5 °F 16.0 °F 88% 29.86 in 10.0 mi West 10.4 mph - N/A   Overcast
3:55 AM 19.4 °F 8.6 °F 15.8 °F 86% 29.83 in 10.0 mi West 9.2 mph - N/A   Overcast
4:53 AM 19.0 °F 8.2 °F 16.0 °F 88% 29.87 in 8.0 mi West 9.2 mph - 0.00 in Snow Light Snow
5:50 AM 19.4 °F 9.5 °F 17.6 °F 93% 29.85 in 7.0 mi West 8.1 mph - 0.00 in Snow Light Snow
5:53 AM 19.9 °F 10.1 °F 17.1 °F 89% 29.88 in 7.0 mi WSW 8.1 mph - 0.00 in Snow Light Snow
6:38 AM 19.4 °F 11.5 °F 17.6 °F 93% 29.84 in 8.0 mi SSW 5.8 mph - 0.00 in Snow Light Snow
6:53 AM 19.9 °F 13.4 °F 17.1 °F 89% 29.87 in 8.0 mi SSW 4.6 mph - 0.00 in   Overcast
6:55 AM 19.4 °F 12.8 °F 17.6 °F 93% 29.84 in 8.0 mi SSW 4.6 mph - N/A   Overcast
7:53 AM 19.9 °F 8.6 °F 17.1 °F 89% 29.87 in 4.0 mi SSW 10.4 mph - 0.00 in Snow Light Snow
8:27 AM 21.2 °F 10.1 °F 17.6 °F 86% 29.84 in 3.0 mi SSW 10.4 mph - 0.00 in Snow Light Snow
8:53 AM 21.0 °F 8.6 °F 18.0 °F 88% 29.87 in 3.0 mi SSW 12.7 mph - 0.00 in Snow Light Snow
9:06 AM 21.2 °F 8.9 °F 17.6 °F 86% 29.85 in 2.0 mi SW 12.7 mph - 0.00 in Snow Light Snow
9:25 AM 21.2 °F 7.8 °F 19.4 °F 93% 29.84 in 1.5 mi SSW 15.0 mph - 0.00 in Snow Light Snow
9:53 AM 21.9 °F 8.7 °F 19.0 °F 89% 29.87 in 1.5 mi SSW 15.0 mph - 0.00 in Snow Light Snow
10:49 AM 24.8 °F 11.9 °F 19.4 °F 80% 29.83 in 3.0 mi SSW 16.1 mph - 0.00 in Snow Light Snow
10:53 AM 25.0 °F 11.3 °F 21.0 °F 85% 29.86 in 3.0 mi SSW 18.4 mph 24.2 mph 0.00 in Snow Light Snow
11:43 AM 24.8 °F 13.4 °F 21.2 °F 86% 29.82 in 4.0 mi SW 12.7 mph 26.5 mph 0.00 in Snow Light Snow
11:53 AM 25.0 °F 11.3 °F 19.9 °F 81% 29.84 in 4.0 mi SW 18.4 mph 24.2 mph 0.00 in Snow Light Snow
12:07 PM 24.8 °F 10.0 °F 19.4 °F 80% 29.81 in 2.0 mi SW 21.9 mph 27.6 mph 0.00 in Snow Light Snow
12:41 PM 24.8 °F 10.0 °F 17.6 °F 74% 29.80 in 3.0 mi SW 21.9 mph 32.2 mph 0.00 in Snow Light Snow
12:53 PM 24.1 °F 9.4 °F 18.0 °F 77% 29.83 in 3.0 mi SW 20.7 mph 29.9 mph 0.00 in Snow Light Snow
1:13 PM 23.0 °F 8.7 °F 17.6 °F 80% 29.80 in 2.0 mi SW 18.4 mph 27.6 mph 0.00 in Snow Light Snow
1:38 PM 23.0 °F 8.7 °F 17.6 °F 80% 29.81 in 3.0 mi SW 18.4 mph 28.8 mph 0.00 in Snow Light Snow
1:53 PM 23.0 °F 9.2 °F 17.1 °F 78% 29.84 in 5.0 mi SW 17.3 mph - 0.00 in Snow Light Snow
2:53 PM 21.9 °F 9.2 °F 16.0 °F 78% 29.86 in 4.0 mi SW 13.8 mph 23.0 mph 0.00 in Snow Light Snow
3:37 PM 21.2 °F 7.8 °F 15.8 °F 80% 29.85 in 3.0 mi SW 15.0 mph - 0.00 in Snow Light Snow
3:53 PM 21.9 °F 9.2 °F 17.1 °F 82% 29.88 in 3.0 mi WSW 13.8 mph 21.9 mph 0.00 in Snow Light Snow
4:15 PM 21.2 °F 6.8 °F 15.8 °F 80% 29.87 in 6.0 mi West 17.3 mph - 0.00 in Snow Light Snow
4:26 PM 21.2 °F 6.8 °F 15.8 °F 80% 29.87 in 3.0 mi West 17.3 mph 23.0 mph 0.00 in Snow Light Snow
4:44 PM 21.2 °F 7.8 °F 15.8 °F 80% 29.88 in 6.0 mi WSW 15.0 mph - 0.00 in Snow Light Snow
4:53 PM 21.0 °F 7.6 °F 15.1 °F 78% 29.92 in 2.5 mi WSW 15.0 mph 23.0 mph 0.00 in Snow Light Snow
4:58 PM 21.2 °F 8.3 °F 15.8 °F 80% 29.89 in 4.0 mi WSW 13.8 mph - 0.00 in Snow Light Snow
5:53 PM 19.9 °F 5.2 °F 12.0 °F 71% 29.94 in 5.0 mi West 17.3 mph 25.3 mph 0.00 in Snow Light Snow
6:53 PM 19.0 °F 5.6 °F 9.0 °F 65% 29.98 in 10.0 mi West 13.8 mph 25.3 mph 0.00 in   Mostly Cloudy
7:53 PM 19.0 °F 6.1 °F 10.0 °F 68% 30.00 in 8.0 mi West 12.7 mph 20.7 mph 0.00 in Snow Light Snow
8:44 PM 17.6 °F 5.7 °F 8.6 °F 68% 29.98 in 5.0 mi West 10.4 mph - 0.00 in Snow Light Snow
8:53 PM 18.0 °F 6.9 °F 10.0 °F 71% 30.02 in 4.0 mi West 9.2 mph - 0.00 in Snow Light Snow
9:34 PM 17.6 °F 5.0 °F 8.6 °F 68% 30.00 in 4.0 mi West 11.5 mph - 0.00 in Snow Light Snow
9:53 PM 18.0 °F 6.9 °F 10.0 °F 71% 30.04 in 6.0 mi West 9.2 mph - 0.00 in Snow Light Snow
10:53 PM 18.0 °F 6.1 °F 8.1 °F 65% 30.04 in 9.0 mi West 10.4 mph - 0.00 in   Overcast
11:53 PM 15.1 °F 2.5 °F 10.0 °F 80% 30.06 in 7.0 mi SW 10.4 mph - N/A   Overcast